Weather in Khvostikha

Russia / Ulyanovsk Oblast     53°47′31″N   47°53′51″E
temp.,
°C
wind,
m/s
gust,
m/s
humid.,
%
clouds,
%
prec.,
mm/h
press.,
hPa
HPBL,
m
28 july, wed
wed2801:00+16nw337689 0.0 101635
04:00+14nnw33837 0.0 101733
07:00+17nnw5973100 0.0 1017377
10:00+22nnw34525 0.1 1016871
13:00+25nnw353935 0.0 10152596
16:00+26nw55326 0.0 10142660
19:00+24nnw45381 0.0 1014570
22:00+16ese22573 0.0 101518
29 july, thu
thu2901:00+15sse225784 0.0 101515
04:00+15s2258100 0.0 101424
07:00+18s365489 0.0 1014168
10:00+18sw3768100 0.1 1013272
13:00+17se4890100 1.1 1011259
16:00+21ssw51072100 1.6 1008953
19:00+22ssw6116272 0.2 1006693
22:00+17sw4118864 1.4 1006208
30 july, fri
fri3001:00+17w410950 0.0 1006257
04:00+16w4109720 0.0 1006256
07:00+17wnw4109266 0.0 1007385
10:00+23wnw466415 0.0 1008670
13:00+28w46435 0.0 10081869
16:00+27wsw3646100 0.0 1007309
19:00+27sw354986 0.0 1007404
22:00+22ssw366345 0.0 100796
31 july, sat
sat3101:00+19nw228070 0.3 100718
04:00+18ssw2391100 2.8 100665
07:00+19sw3790100 2.3 1006206
10:00+24wsw466812 2.6 1006670
13:00+28w6753100 0.0 10061722
16:00+26w575597 0.0 10071400
19:00+25wnw475982 0.0 1008566
22:00+21wsw227031 0.0 100922
1 august, sun
sun101:00+19wsw2273100 0.0 101015
04:00+18wsw336598 0.0 101138
07:00+20sw3862100 0.0 1011238
10:00+26wsw454324 0.0 1012707
13:00+30w453419 0.0 10112340
16:00+30w56305 0.0 10112333
19:00+28wsw35400 0.0 1011193
22:00+23ssw33510 0.0 101128